EB5ETD Weather Reports


Display with metric or nautical units.
time (UTC)temp
F
wind
direction
speed
MPH
gust
MPH
rain 1hr
in
rain 24hr
in
rain mn
in
humidity
%
barometer
mb
20260504182004 65 219 1.0 6.0 0.00 0.07 0.07 70 1017.6
20260504181004 65 224 1.0 2.0 0.00 0.09 0.07 74 1017.5
20260504180503 65 182 1.0 6.0 0.00 0.12 0.07 74 1017.5
20260504180003 66 73 2.0 5.0 0.00 0.13 0.07 73 1017.4
20260504175503 66 204 2.0 6.0 0.00 0.14 0.07 72 1017.5
20260504175004 66 233 1.0 3.0 0.00 0.14 0.07 72 1017.5
20260504174504 66 224 1.0 3.0 0.00 0.14 0.07 73 1017.5
20260504174004 66 232 1.0 3.0 0.00 0.14 0.07 73 1017.5
20260504173504 66 240 1.0 3.0 0.00 0.14 0.07 72 1017.4
20260504173004 66 229 2.0 8.0 0.00 0.14 0.07 72 1017.3
20260504171504 67 252 3.0 6.0 0.00 0.14 0.07 71 1017.0
20260504171004 69 246 2.0 5.0 0.00 0.14 0.07 69 1017.0
20260504170504 68 187 2.0 3.0 0.00 0.14 0.07 71 1017.1
20260504150504 67 23 2.0 5.0 0.00 0.14 0.07 78 1017.0
20260504141004 61 49 2.0 3.0 0.00 0.14 0.07 91 1018.7
20260504100504 62 256 5.0 8.0 0.00 0.07 0.00 80 1020.3
20260504081504 60 204 2.0 7.0 0.00 0.07 0.00 91 1020.5
20260504081004 60 286 2.0 7.0 0.00 0.07 0.00 90 1020.5
20260504050504 57 157 0.0 1.0 0.00 0.07 0.00 99 1020.4
20260504045504 57 156 1.0 2.0 0.00 0.07 0.00 99 1020.7
20260504045004 57 51 0.0 0.0 0.00 0.07 0.00 99 1020.5
20260504044504 57 51 0.0 0.0 0.00 0.07 0.00 98 1020.5
20260504044004 57 51 0.0 1.0 0.00 0.07 0.00 98 1020.5
20260504043504 57 51 0.0 1.0 0.00 0.07 0.00 98 1020.4
20260504042504 57 51 1.0 2.0 0.00 0.07 0.00 98 1020.4
20260504042004 57 51 1.0 2.0 0.00 0.07 0.00 98 1020.6
20260504041504 57 51 1.0 2.0 0.00 0.07 0.00 98 1020.7
20260504041004 57 51 1.0 1.0 0.00 0.07 0.00 98 1020.6
20260504040503 57 51 1.0 1.0 0.00 0.07 0.00 98 1020.7
20260504040004 57 40 1.0 2.0 0.00 0.07 0.00 98 1020.5
20260504035504 57 40 0.0 1.0 0.00 0.07 0.00 98 1020.6
20260504035003 57 40 0.0 1.0 0.00 0.07 0.00 98 1020.6
20260504034504 57 40 0.0 1.0 0.00 0.07 0.00 98 1020.8
20260504034004 57 40 0.0 1.0 0.00 0.07 0.00 98 1020.8
20260504033504 57 40 1.0 2.0 0.00 0.07 0.00 98 1020.9
20260504033004 57 40 0.0 1.0 0.00 0.07 0.00 98 1020.8
20260504032504 57 40 0.0 1.0 0.00 0.07 0.00 98 1021.0
20260504032004 57 40 0.0 0.0 0.00 0.07 0.00 98 1021.0
20260504031504 57 40 0.0 0.0 0.00 0.07 0.00 98 1021.2
20260504030003 57 40 1.0 3.0 0.00 0.07 0.00 98 1021.3
20260504025504 57 45 2.0 3.0 0.00 0.07 0.00 98 1021.5
20260504025004 57 43 0.0 1.0 0.00 0.07 0.00 98 1021.3
20260504024503 58 44 1.0 3.0 0.00 0.07 0.00 98 1021.3
20260504024004 58 61 1.0 2.0 0.00 0.07 0.00 98 1021.2
20260504023504 58 61 0.0 0.0 0.00 0.07 0.00 98 1021.1
20260504023004 58 61 0.0 1.0 0.00 0.07 0.00 98 1021.1
20260504022503 58 61 0.0 0.0 0.00 0.07 0.00 98 1021.4
20260504022004 58 61 0.0 0.0 0.00 0.07 0.00 98 1021.1
20260504021504 58 61 0.0 1.0 0.00 0.07 0.00 98 1021.1
20260504021004 58 61 0.0 0.0 0.00 0.07 0.00 98 1021.0
20260504020504 58 61 0.0 0.0 0.00 0.07 0.00 98 1021.1
20260504020004 58 61 0.0 1.0 0.00 0.07 0.00 98 1021.1
20260504015504 58 61 1.0 1.0 0.00 0.07 0.00 98 1021.4
20260504015003 58 61 1.0 1.0 0.00 0.07 0.00 98 1021.2
20260504014504 58 61 1.0 1.0 0.00 0.07 0.00 98 1021.1
20260504013504 58 61 0.0 1.0 0.00 0.07 0.00 98 1021.3
20260504013004 58 61 0.0 0.0 0.00 0.07 0.00 98 1021.3
20260504012504 57 61 0.0 1.0 0.00 0.07 0.00 98 1021.3
20260504012004 58 61 1.0 1.0 0.00 0.07 0.00 98 1021.3
20260504011504 58 61 0.0 0.0 0.00 0.07 0.00 98 1021.3
20260504011004 58 61 0.0 0.0 0.00 0.07 0.00 98 1021.2
20260504010504 57 61 0.0 0.0 0.00 0.07 0.00 98 1021.3
20260504010003 57 61 0.0 0.0 0.00 0.07 0.00 98 1021.3
20260504005503 57 61 0.0 0.0 0.00 0.07 0.00 98 1021.2
20260504005004 57 61 0.0 0.0 0.00 0.07 0.00 98 1021.3
20260504004504 57 61 0.0 0.0 0.00 0.07 0.00 98 1021.3
20260504004004 57 61 0.0 0.0 0.00 0.07 0.00 98 1021.3
20260504003503 57 61 0.0 0.0 0.00 0.07 0.00 98 1021.3
20260504003003 57 61 0.0 0.0 0.00 0.07 0.00 98 1021.1
20260504002503 57 61 0.0 1.0 0.00 0.07 0.00 98 1021.4
20260504002004 57 61 0.0 1.0 0.00 0.07 0.00 98 1021.5
20260504001504 57 61 1.0 2.0 0.00 0.07 0.00 98 1021.5
20260504001004 57 61 1.0 2.0 0.00 0.07 0.00 98 1021.6
20260504000504 57 61 1.0 1.0 0.00 0.07 0.00 98 1021.6
20260504000004 57 61 0.0 0.0 0.00 0.07 0.00 98 1021.7
20260503235004 57 61 0.0 2.0 0.00 0.07 0.00 98 1021.6
20260503234504 57 61 1.0 2.0 0.00 0.07 0.00 98 1021.7
20260503234004 58 61 1.0 2.0 0.00 0.07 0.00 98 1021.8
20260503233504 58 61 0.0 1.0 0.00 0.07 0.00 98 1021.7
20260503233004 58 61 0.0 1.0 0.00 0.07 0.00 98 1021.9
20260503232504 58 61 1.0 2.0 0.00 0.07 0.00 98 1021.9
20260503232004 58 61 0.0 1.0 0.00 0.07 0.00 98 1021.9
20260503231503 58 65 0.0 2.0 0.00 0.07 0.00 98 1022.0
20260503231005 58 65 1.0 2.0 0.00 0.07 0.00 98 1021.9
20260503230004 58 65 1.0 2.0 0.00 0.07 0.00 98 1021.9
20260503225503 58 65 1.0 2.0 0.00 0.07 0.00 98 1021.8
20260503225004 58 65 1.0 2.0 0.00 0.07 0.00 98 1022.1
20260503224004 57 65 1.0 2.0 0.00 0.07 0.00 98 1022.2
20260503222504 57 61 1.0 2.0 0.00 0.07 0.00 98 1022.2
20260503222003 57 61 0.0 1.0 0.00 0.07 0.00 98 1022.2
20260503221503 57 61 0.0 1.0 0.00 0.07 0.00 98 1022.4
20260503221004 57 56 1.0 2.0 0.00 0.07 0.00 98 1022.3
20260503220004 57 51 2.0 2.0 0.00 0.07 0.00 97 1022.3
20260503215504 57 46 2.0 2.0 0.00 0.07 0.07 97 1022.2
20260503215004 57 43 1.0 3.0 0.00 0.07 0.07 97 1022.3
20260503214504 57 56 2.0 3.0 0.00 0.07 0.07 97 1022.3
20260503214004 57 43 2.0 3.0 0.00 0.07 0.07 97 1022.1
20260503213504 57 42 1.0 3.0 0.00 0.07 0.07 97 1022.3
20260503212503 57 63 0.0 1.0 0.00 0.07 0.07 97 1022.5
20260503212003 57 65 1.0 5.0 0.00 0.07 0.07 97 1022.5
20260503211004 58 39 1.0 2.0 0.00 0.07 0.07 97 1022.6
20260503210004 58 41 0.0 2.0 0.00 0.07 0.07 97 1022.4
20260503205004 58 41 2.0 3.0 0.00 0.07 0.07 97 1022.2
20260503204503 58 56 0.0 1.0 0.00 0.07 0.07 97 1022.3
20260503203504 57 54 1.0 2.0 0.00 0.07 0.07 97 1022.1
20260503203003 57 55 0.0 1.0 0.00 0.07 0.07 97 1022.0
20260503202504 57 60 1.0 2.0 0.00 0.07 0.07 97 1021.9
20260503202004 57 54 0.0 1.0 0.00 0.07 0.07 97 1021.9
20260503201504 57 54 0.0 1.0 0.00 0.07 0.07 97 1022.0
20260503201004 57 54 0.0 1.0 0.00 0.07 0.07 97 1021.8
20260503200503 57 54 0.0 1.0 0.00 0.07 0.07 97 1021.7
20260503200003 57 53 1.0 1.0 0.00 0.07 0.07 97 1021.4
20260503195504 57 48 1.0 2.0 0.00 0.07 0.07 96 1021.6
20260503195005 57 44 0.0 2.0 0.00 0.07 0.07 96 1021.4
20260503194504 57 34 1.0 3.0 0.00 0.07 0.07 96 1021.2
20260503194004 57 47 1.0 2.0 0.00 0.07 0.07 96 1021.3
20260503193503 58 30 1.0 2.0 0.00 0.07 0.07 96 1021.2
20260503192503 58 54 1.0 3.0 0.00 0.07 0.07 96 1021.2
20260503192004 58 9 1.0 3.0 0.00 0.07 0.07 96 1021.1
20260503191504 58 29 2.0 5.0 0.01 0.07 0.07 96 1020.9
20260503191003 58 43 2.0 3.0 0.02 0.07 0.07 96 1020.9
20260503190004 58 5 1.0 3.0 0.06 0.07 0.07 95 1021.0
20260503185004 58 65 1.0 1.0 0.07 0.07 0.07 95 1020.6
20260503184504 58 72 1.0 2.0 0.07 0.07 0.07 95 1020.5
20260503184004 58 43 1.0 2.0 0.07 0.07 0.07 94 1020.5
20260503183504 58 49 1.0 3.0 0.07 0.07 0.07 94 1020.4
20260503183004 59 45 2.0 5.0 0.07 0.07 0.07 94 1020.4
20260503182503 59 53 1.0 5.0 0.07 0.07 0.07 93 1020.3